AirNav   Air Wisconsin Up To $57,000 Bonus
 
 1103 users online  

9MN6 Merill L Harris Field Airport
Jordan, Minnesota, USA

GOING TO JORDAN?


FAA INFORMATION EFFECTIVE 01 DECEMBER 2022

Location

FAA Identifier: 9MN6
Lat/Long: 44-38-36.3670N 093-41-58.8530W
44-38.606117N 093-41.980883W
44.6434353,-93.6996814
(estimated)
Elevation: 800 ft. / 244 m (estimated)
Variation: 03E (1995)
From city: 6 miles NE of JORDAN, MN
Time zone: UTC -6 (UTC -5 during Daylight Saving Time)
Zip code: 55352

Airport Operations

Airport use: Private use. Permission required prior to landing
Activation date: 02/1998
Control tower: no
ARTCC: MINNEAPOLIS CENTER
FSS: PRINCETON FLIGHT SERVICE STATION
Attendance: UNATNDD
Wind indicator: yes
Segmented circle: no

Airport Communications

WX ASOS at FCM (15 nm NE): PHONE 952-941-4156
WX AWOS-3 at GYL (18 nm NW): 119.625 (320-864-5830)

Nearby radio navigation aids

VOR radial/distance  VOR name  Freq  Var
FCMr224/15.5FLYING CLOUD VOR/DME117.7001E
FGTr266/22.1FARMINGTON VORTAC115.7006E
MSPr230/24.9MINNEAPOLIS VOR/DME115.3002E
MKTr013/27.0MANKATO VOR/DME110.8007E
FOWr330/29.9HALFWAY VOR/DME111.2002E
GEPr199/33.2GOPHER VORTAC117.3006E

Airport Services

Runway Information

Runway 9/27

Dimensions: 2500 x 75 ft. / 762 x 23 m
Surface: turf
RUNWAY 9  RUNWAY 27
Traffic pattern: leftleft
Obstructions: 50 ft. tree, 280 ft. from runway20 ft. pline, 950 ft. from runway

Airport Ownership and Management from official FAA records

Ownership: Privately-owned
Owner: RON SYMANITZ
9054 OLD HWY 169 BLVD
JORDAN, MN 55352
Phone 952-356-2975
Manager: RON SYMANITZ
9054 OLD HWY 169 BLVD
JORDAN, MN 55352
Phone 952-356-2975

Airport Operational Statistics

Aircraft based on the field: 2
Single engine airplanes: 2
    

Additional Remarks

FOR CD CTC MINNEAPOLIS ARTCC AT 651-463-5588.

Instrument Procedures

There are no published instrument procedures at 9MN6.

Some nearby airports with instrument procedures:

KFCM - Flying Cloud Airport (15 nm NE)
KGYL - Glencoe Municipal Airport (18 nm NW)
KLVN - Airlake Airport (20 nm E)
KMSP - Minneapolis-St Paul International/Wold-Chamberlain Airport (25 nm NE)
KFBL - Faribault Municipal Airport-Liz Wall Strohfus Field (25 nm SE)
 
Loc | Ops | Rwys | IFR | FBO | Links
Com | Nav | Svcs | Stats | Notes
Area around 9MN6 (Merill L Harris Field Airport)
 
Road maps at: MapQuest Bing Google
 
Aerial photo
No photo
 
Sectional chart

 
Airport distance calculator
Flying to Merill L Harris Field Airport? Find the distance to fly.

From to 9MN6

Sunrise and sunset
Times for 06-Dec-2022
 Local
(UTC-6)
 Zulu
(UTC)
Morning civil twilight07:0513:05
Sunrise07:3813:38
Sunset16:3422:34
Evening civil twilight17:0723:07

Current date and time
Zulu (UTC)  07-Dec-2022 03:10:20
Local (UTC-6)  06-Dec-2022 21:10:20
 
METAR
KFCM 
15nm NE 
070253Z AUTO 00000KT 10SM BKN120 M06/M09 A3006 RMK AO2 SLP197 T10561089 53013
KGYL 
18nm W 
070255Z AUTO 00000KT 7SM OVC120 M07/M09 A3007 RMK AO2 T10751092
KLVN 
21nm E 
070255Z AUTO 00000KT 10SM CLR M11/M12 A3009 RMK AO2
KMSP 
25nm NE 
070253Z 29004KT 10SM BKN120 M04/M09 A3008 RMK AO2 SLP202 T10441089 53017
KFBL 
26nm SE 
070255Z AUTO 00000KT 7SM CLR M09/M09 A3008 RMK AO2
KSGS 
27nm NE 
070255Z AUTO 00000KT 10SM BKN120 M06/M09 A3009 RMK AO2 T10581086
KMKT 
27nm S 
070256Z AUTO 00000KT 8SM CLR M08/M09 A3008 RMK AO2 SLP207 T10781094 53017 FZRANO
KMIC 
29nm NE 
070253Z AUTO 00000KT 10SM OVC120 M07/M10 A3007 RMK AO2 SLP199 T10671100 53014
TAF
NOTAMs
Click for the latest NOTAMs
NOTAMs are issued by the DoD/FAA and will open in a separate window not controlled by AirNav.

 

 
 

Would you like to see your business listed on this page?

 If your business provides an interesting product or service to pilots, flight crews, aircraft, or users of the Merill L Harris Field Airport, you should consider listing it here.  To start the listing process, click on the button below
 
Add a business
 

Other Pages about Merill L Harris Field Airport

Update a link
 
Copyright © AirNav, LLC. All rights reserved. Privacy Policy  Contact